SCP
0 0 0 0 0 0 0 0 0 0 0 0 0 0 0 0 0 0 0 0 0 0 0 0 0 0 0 0 0 0 0 0 1 1 0 0 0 0 0 0 0 0 0 0
0 0 0 0 0 0 0 0 0 0 0 0 0 0 0 0 0 0 0 0 0 0 0 0 0 0 0 0 0 0 0 0 1 1 0 0 0 0 0 0 0 0 0 0
0 0 0 0 0 0 0 0 0 0 0 0 0 0 0 0 0 0 0 0 0 0 0 0 0 0 0 0 0 0 0 0 0 0 0 0 0 0 0 0 0 0 0 0
0 0 0 0 0 0 0 0 0 0 0 0 0 0 0 0 0 0 0 0 0 0 0 0 0 0 0 0 0 0 0 0 0 0 0 0 0 0 0 0 0 0 0 0
0 0 0 0 0 0 0 0 0 0 0 0 0 0 0 0 0 0 0 0 0 0 0 0 0 0 0 0 0 0 0 0 0 0 0 0 0 0 0 0 0 0 0 0
0 0 0 0 0 0 0 0 0 0 0 0 0 0 0 0 0 0 0 0 0 0 0 0 0 0 0 0 0 0 0 0 0 0 0 0 0 0 0 0 0 0 0 0
0 0 0 0 0 0 0 0 0 0 0 0 0 0 0 0 0 0 0 0 0 0 0 0 0 0 0 0 0 0 0 0 0 0 0 0 0 0 0 0 0 0 0 0
0 0 0 0 0 0 0 0 0 0 0 0 0 0 0 0 0 0 0 0 0 0 0 0 0 0 0 0 0 0 0 0 0 0 0 0 0 0 0 0 0 0 0 0
0 0 0 0 0 0 0 0 0 0 0 0 0 0 0 0 0 0 0 0 0 0 0 0 0 0 0 0 0 0 0 0 0 0 0 0 0 0 0 0 0 0 0 0
0 0 0 0 0 0 0 0 0 0 0 0 0 0 0 0 0 0 0 0 0 0 0 0 0 0 0 0 0 0 0 0 0 0 0 0 0 0 0 0 0 0 0 0
0 0 0 0 0 0 0 0 0 0 0 0 0 0 0 0 0 0 0 0 0 0 0 0 0 0 0 0 0 -0 -0 -0 0 0 0 0 0 0 0 0 0 0 0 0
0 0 0 0 0 0 0 0 0 0 0 0 0 0 0 0 0 0 0 0 0 0 0 0 0 0 0 0 -0 -0 -0 -0 -0 0 0 0 0 0 0 0 0 0 0 0
0 0 0 0 0 0 0 0 0 0 0 0 0 0 0 0 0 0 0 0 0 0 0 0 0 0 0 0 0 0 0 -0 -0 0 0 0 0 0 0 0 0 0 0 0
0 0 0 0 0 0 0 0 0 0 0 0 0 0 0 0 0 0 0 0 0 0 0 0 0 0 0 0 0 0 0 0 0 0 0 0 0 0 0 0 0 0 0 0
0 0 0 0 0 0 0 0 0 0 0 0 0 0 0 0 0 0 0 0 0 0 0 0 0 0 0 0 0 0 0 0 0 0 0 0 0 0 0 0 0 0 0 0
0 0 0 0 0 0 0 0 0 0 0 0 0 0 0 0 0 0 0 0 0 0 0 0 0 0 0 0 0 0 0 0 0 0 0 0 0 0 0 0 0 0 0 0
0 0 0 0 0 0 0 0 0 0 0 0 0 0 0 0 0 0 0 0 0 0 0 0 0 0 0 0 0 0 0 0 0 0 0 0 0 0 0 0 0 0 0 0
0 0 0 0 0 0 0 0 0 0 0 0 0 0 0 0 0 0 0 0 0 0 0 0 0 0 0 0 0 0 0 0 0 0 0 0 0 0 0 0 0 0 0 0
0 0 0 0 0 0 0 0 0 0 0 0 0 0 0 0 0 0 0 0 0 0 0 0 0 0 0 0 0 0 0 0 0 0 0 0 0 0 0 0 0 0 0 0
0 0 0 0 0 0 0 0 0 0 0 0 0 0 0 0 0 0 0 0 0 0 0 0 0 0 0 0 0 0 0 0 0 0 0 0 0 0 0 0 0 0 0 0
0 0 0 0 0 0 0 0 0 0 0 0 0 0 0 0 0 0 0 0 0 0 0 0 0 0 0 0 0 0 0 0 0 0 0 0 0 0 0 0 0 0 0 0
0 0 0 0 0 0 0 0 0 0 0 0 0 0 0 0 0 0 0 0 0 0 0 0 0 0 0 0 0 0 0 0 0 0 0 0 0 0 0 0 0 0 0 0
0 0 0 0 0 0 0 0 0 0 0 0 0 0 0 0 0 0 0 0 0 0 0 0 0 0 0 0 0 0 0 0 0 0 0 0 0 0 0 0 0 0 0 0
0 0 0 0 0 0 0 0 0 0 0 0 0 0 0 0 0 0 0 0 0 0 0 0 0 0 0 0 0 0 0 0 0 0 0 0 0 0 0 0 0 0 0 0
0 0 0 0 0 0 0 0 0 0 0 0 0 0 0 0 0 0 0 0 0 0 0 0 0 0 0 0 0 0 0 0 0 0 0 0 0 0 0 0 0 0 0 0
0 0 0 0 0 0 0 0 0 0 0 0 0 0 0 0 0 0 0 0 0 0 0 0 0 0 0 0 0 0 0 0 0 0 0 0 0 0 0 0 0 0 0 0
Wind_Speed
4 5 6 10 8 5 6 5 3 3 1 5 7 9 11 9 6 9 10 11 12 14 13 9 11 13 12 12 13 15 15 14 11 8 9 9 10 8 8 8 10 13 13 14
4 4 8 6 4 3 3 2 2 1 1 2 5 10 10 9 9 10 11 12 13 12 10 9 9 9 12 14 14 15 16 14 13 12 9 6 5 4 5 5 8 11 13 14
8 6 5 5 5 5 4 5 4 3 1 2 3 9 7 6 5 7 9 10 10 11 12 9 8 9 10 13 15 14 16 16 14 11 5 3 3 2 4 6 8 10 11 13
5 4 5 6 6 7 5 4 5 4 1 4 1 6 8 6 8 8 9 8 9 8 8 7 6 7 9 13 11 12 12 12 11 11 9 10 10 10 9 6 5 6 8 10
7 5 6 7 8 8 5 2 3 2 2 2 2 4 10 5 6 10 10 8 6 4 4 4 5 6 6 6 6 7 7 8 8 10 11 11 11 9 4 4 5 7 7 8
3 2 5 7 4 6 7 7 8 6 5 4 5 6 10 6 8 8 6 4 1 1 1 1 2 2 2 1 2 3 5 6 6 8 9 11 12 9 7 6 6 6 5 7
2 1 0 3 7 3 6 7 3 2 2 8 3 5 11 10 9 7 5 2 2 3 3 3 4 4 3 2 0 2 4 5 5 7 9 10 10 10 12 10 8 8 6 7
9 6 7 6 8 9 7 10 10 8 7 6 3 9 10 8 6 4 2 2 4 4 2 2 3 3 3 2 0 2 3 4 5 6 7 7 8 8 8 9 8 9 9 9
11 8 3 5 4 12 8 6 7 7 3 2 7 7 10 6 3 2 1 4 5 4 3 3 3 2 2 2 1 2 3 4 5 6 6 6 7 8 9 8 9 8 8 6
10 6 2 2 3 1 7 10 6 6 6 6 7 6 6 4 6 3 2 3 3 3 3 4 3 3 3 2 2 2 3 4 4 5 5 5 7 8 8 7 9 9 8 8
6 8 3 3 9 11 7 6 6 6 6 7 6 9 8 8 5 3 2 2 2 3 3 4 4 4 4 3 2 2 3 3 4 5 5 6 6 6 7 8 10 9 8 8
6 6 5 6 4 5 7 9 10 9 7 6 5 9 4 4 2 5 4 3 3 3 3 3 4 4 5 4 4 3 3 4 5 5 5 6 6 6 7 9 9 8 9 8
8 8 5 0 1 2 4 4 6 5 6 7 7 9 3 3 4 4 4 3 3 4 5 5 5 5 5 5 4 4 4 5 5 4 5 6 7 7 9 10 9 8 8 8
5 5 7 12 7 8 7 7 7 8 7 8 12 9 4 2 2 2 3 3 3 4 4 5 6 6 6 5 5 5 5 5 5 4 5 7 8 8 9 9 8 8 8 9
4 3 2 1 2 3 3 6 8 10 10 11 10 9 8 4 2 1 2 3 4 4 5 5 5 6 7 8 8 6 6 6 5 5 6 8 8 7 7 8 8 8 8 9
3 3 2 1 1 1 3 6 6 7 7 8 8 11 4 3 0 2 3 3 4 4 5 6 6 7 8 8 9 9 9 8 6 7 7 8 7 7 8 8 8 8 8 8
5 6 4 3 2 1 10 11 11 7 7 7 12 11 2 2 1 0 2 4 4 5 5 6 6 6 7 7 8 9 9 9 9 8 8 8 7 8 8 7 7 8 9 8
8 7 4 3 4 9 8 3 8 10 9 10 10 7 2 2 3 4 5 4 3 4 5 6 6 7 7 6 7 8 8 8 8 9 9 9 8 9 8 7 8 8 6 7
7 8 5 5 5 8 8 5 6 8 7 5 7 4 0 2 4 3 3 3 2 3 4 5 5 6 6 7 7 8 8 8 8 9 9 9 9 10 10 9 9 7 6 7
4 6 6 6 6 10 10 4 2 5 6 2 3 3 1 3 2 2 2 3 3 3 4 4 5 5 6 6 7 7 8 9 9 10 10 10 8 9 10 10 9 6 5 6
7 6 8 7 7 10 9 4 4 7 8 4 4 4 3 2 3 3 4 4 4 5 5 5 5 5 6 6 6 7 8 9 9 10 10 10 9 8 8 8 6 5 5 4
11 9 8 7 8 13 5 6 8 6 5 5 4 3 2 2 4 4 4 5 6 6 6 5 5 6 6 5 6 8 9 9 8 9 10 10 9 8 6 6 6 4 3 4
9 11 9 10 9 2 4 5 4 6 6 4 3 2 2 3 4 5 5 5 6 6 6 5 6 8 7 5 4 8 10 9 9 9 10 9 9 7 6 5 5 4 2 3
4 3 5 4 4 2 3 4 4 5 5 3 2 2 2 4 5 7 7 7 7 6 6 5 6 8 8 6 5 6 8 8 9 10 9 8 7 7 5 4 3 3 3 3
8 7 6 5 3 2 2 3 4 3 3 1 1 2 3 4 6 7 8 8 8 7 6 5 6 8 9 8 7 6 7 7 9 10 9 7 6 6 5 4 3 3 3 3
6 8 9 7 7 6 5 4 3 3 2 1 2 3 3 3 6 7 8 7 7 8 7 7 7 8 8 8 8 7 6 6 8 9 8 6 5 4 4 3 3 3 2 3
Wind_Direction
105 99 175 195 188 173 160 159 199 245 210 172 229 258 271 281 271 252 246 242 241 243 246 237 224 218 212 208 204 203 202 200 190 188 194 198 206 202 203 203 198 196 194 192
83 215 213 189 180 172 170 176 197 306 11 195 259 269 266 262 249 237 238 242 242 250 262 250 234 216 209 209 207 205 204 198 197 201 200 197 194 197 205 203 205 202 198 194
167 218 182 159 170 180 197 192 197 199 1 342 311 302 295 283 257 260 248 245 245 239 246 249 238 223 214 213 210 207 206 202 200 194 172 153 148 165 195 209 211 208 203 199
202 222 143 159 183 156 204 208 180 163 125 287 355 292 287 285 302 290 278 262 250 248 250 256 253 241 224 222 215 211 205 200 194 183 181 184 197 210 213 207 207 205 208 206
214 191 160 178 192 163 180 121 127 118 147 299 298 245 280 297 274 267 263 265 264 265 256 265 270 257 245 231 215 210 201 198 188 187 192 197 211 218 202 192 203 207 208 212
193 196 180 181 149 149 126 71 55 48 67 272 221 202 274 245 226 248 266 285 313 24 45 356 343 353 341 349 186 183 188 197 189 191 196 203 212 208 202 204 208 210 211 215
165 232 311 128 96 88 114 101 54 339 335 251 247 226 250 249 242 240 265 301 56 56 51 25 17 16 15 30 119 172 188 203 195 197 205 210 213 208 213 211 210 208 213 218
167 218 211 188 158 163 179 152 164 191 222 267 267 234 252 262 278 260 237 106 69 56 46 27 8 6 356 348 116 195 208 217 207 207 214 215 213 213 222 217 214 215 220 219
176 212 211 201 181 147 154 186 158 131 132 275 262 272 297 290 263 237 108 72 62 52 39 20 3 2 344 318 274 232 226 232 226 221 221 221 217 218 223 219 218 224 224 213
152 184 222 190 99 33 154 147 121 146 175 235 268 255 237 238 218 222 102 84 77 57 36 22 9 354 345 330 305 274 239 235 235 229 225 226 224 223 224 221 225 227 224 213
152 154 163 162 186 174 148 164 159 158 168 175 249 262 222 211 203 174 137 121 92 52 29 12 3 359 355 351 337 305 276 262 255 243 237 237 237 231 228 231 234 232 228 217
169 142 176 219 236 198 182 177 156 167 206 195 209 262 265 183 145 122 106 79 50 39 29 16 8 3 360 350 339 321 300 283 269 258 252 251 249 241 239 242 241 232 231 224
154 144 134 21 249 190 202 199 184 146 146 179 200 256 294 102 86 86 85 63 44 32 21 13 8 359 349 341 334 326 316 302 294 279 266 265 259 250 248 250 248 238 234 232
123 145 180 195 193 174 186 196 183 159 188 214 224 223 214 228 22 29 57 71 62 37 25 11 357 347 341 335 329 324 316 311 314 303 281 272 267 261 259 259 255 247 238 234
94 149 157 114 94 122 171 191 191 201 207 213 234 231 228 242 280 333 25 41 44 34 20 6 351 340 338 338 335 330 322 321 320 310 293 278 278 278 273 268 263 258 249 243
112 138 138 192 149 138 253 237 214 219 225 237 262 263 214 202 195 14 7 31 39 22 2 352 347 344 340 337 334 332 330 327 323 310 295 292 292 285 277 272 269 264 257 251
149 144 156 202 146 110 248 221 204 210 206 201 238 251 197 275 261 338 53 59 38 5 353 351 345 336 331 331 331 329 326 327 325 314 308 306 302 294 286 280 272 263 259 253
152 144 144 144 135 226 242 201 195 208 225 217 239 255 234 190 125 100 89 72 26 354 344 339 334 330 327 327 328 324 321 323 320 317 315 315 311 303 298 289 276 268 260 252
152 148 148 160 200 266 284 239 183 189 234 228 231 246 48 135 121 120 82 59 4 327 316 309 309 307 313 321 324 322 318 318 315 313 312 313 310 304 302 295 288 281 272 264
163 147 149 161 182 228 241 230 192 142 236 214 141 123 90 109 146 210 338 346 323 308 300 300 304 306 312 315 320 316 314 314 311 310 308 306 301 295 294 292 290 285 273 271
174 181 189 185 208 248 244 230 127 178 225 161 130 121 100 120 193 254 305 312 304 298 295 296 298 300 302 310 315 309 307 304 304 307 306 304 299 293 290 290 289 286 282 280
174 182 193 181 208 242 211 161 183 187 135 143 140 140 156 227 262 274 280 286 297 300 300 300 298 297 298 306 311 306 303 305 308 307 303 301 300 297 294 292 295 293 281 279
194 187 181 191 212 226 151 158 142 132 137 151 159 185 216 261 274 284 284 290 291 290 292 291 291 296 298 299 302 298 303 312 310 305 300 298 298 296 292 287 289 291 276 266
234 166 156 196 228 179 128 126 130 134 143 161 179 213 235 264 282 291 295 299 302 300 298 298 300 299 301 306 303 292 304 312 305 298 296 295 296 297 295 286 278 276 275 272
199 170 172 200 193 146 199 172 155 145 141 168 239 246 258 273 281 286 294 298 301 304 305 305 301 298 300 308 305 306 312 314 303 297 292 291 285 284 289 284 271 269 261 255
192 173 173 200 190 172 186 174 161 166 195 234 267 279 286 282 287 294 292 296 302 307 312 309 304 300 302 305 303 307 312 308 299 295 293 289 284 280 276 281 296 291 282 300